GEFSNGP_con_cape1000_240.txt.gz
Probability
0 0 0 0 0 0 0 0 0 0 0 3 10 29 32 32 48 52 58 58 61 71 71 74 71 71 71 68 68 68 68 68 65 55 52 52 45 45 42 39 32 35 32 26
0 0 0 0 0 0 0 0 0 0 0 6 19 26 32 39 45 55 55 65 65 68 74 71 71 71 68 65 65 65 68 68 58 55 52 45 45 42 42 42 32 29 26 26
0 0 0 0 0 0 0 0 0 0 3 13 26 32 35 45 52 61 61 68 61 61 71 74 71 71 68 65 61 61 61 61 61 48 42 42 42 42 42 39 32 32 29 29
0 0 0 0 0 0 0 0 0 3 3 13 16 32 35 42 55 65 65 61 61 61 68 68 71 71 65 65 61 61 58 61 58 45 39 39 39 42 35 39 32 32 26 23
0 0 0 0 0 0 0 0 0 0 6 16 23 26 35 48 52 61 65 65 65 61 61 65 71 71 65 61 61 61 58 58 55 45 39 39 39 39 32 35 29 23 23 19
0 0 0 0 0 0 0 0 0 0 16 23 26 23 29 45 58 61 65 68 61 65 61 68 71 71 68 61 61 58 55 58 52 48 39 39 39 32 29 29 23 23 19 13
0 0 0 0 3 6 0 0 16 16 19 32 35 39 42 48 61 65 68 71 71 71 68 71 68 68 65 65 61 61 52 55 48 42 39 35 35 32 32 23 19 16 10 10
0 0 0 3 3 6 10 19 26 26 26 29 32 52 61 61 61 61 61 65 65 68 68 65 68 68 58 58 58 52 52 48 48 42 32 29 29 32 26 19 19 10 10 6
0 3 6 3 16 19 19 23 26 26 35 45 39 52 61 61 65 55 65 71 65 61 61 61 61 55 58 58 55 55 48 45 45 39 29 29 26 26 26 23 13 6 6 6
3 3 6 16 23 26 29 32 42 42 48 39 45 52 61 61 61 58 52 58 61 58 58 61 61 61 58 48 48 48 45 39 42 35 32 29 23 16 16 13 13 6 6 6
6 3 10 26 26 29 32 42 42 48 45 45 48 52 61 58 55 52 55 58 55 65 55 55 58 55 55 42 48 42 39 39 39 26 23 16 16 10 10 10 6 3 3 3
3 26 16 26 32 35 35 39 45 45 45 48 45 48 52 61 45 45 45 45 52 48 52 55 48 48 42 42 42 42 39 26 26 26 29 16 6 3 0 0 0 0 0 0
23 26 29 32 35 32 32 35 45 52 52 48 48 55 55 52 45 42 42 42 48 45 52 52 48 39 35 32 39 39 35 29 29 26 19 19 10 3 3 0 0 0 0 0
23 26 29 29 32 35 32 32 35 45 48 45 52 42 42 39 39 39 42 39 39 48 52 48 42 35 32 29 29 32 23 23 19 19 16 13 6 0 0 0 0 0 0 0
23 29 32 32 32 32 32 29 32 39 39 39 45 42 39 39 39 39 35 39 42 45 45 35 39 32 29 29 26 29 23 19 16 10 13 10 6 3 3 3 0 0 0 0
26 26 23 29 29 29 29 26 26 35 35 35 42 35 35 32 32 29 39 32 42 35 29 26 26 26 23 23 23 19 13 6 6 3 3 3 10 6 6 6 3 0 0 0
23 23 23 23 29 23 23 23 23 29 29 32 35 35 26 23 26 23 29 26 29 29 32 26 23 23 19 16 16 16 10 0 0 3 3 3 3 6 6 6 0 0 0 0
23 23 23 23 23 19 16 16 16 23 26 26 29 32 29 26 26 23 19 29 29 29 23 26 19 23 23 16 19 16 6 3 3 3 3 3 3 6 6 3 3 0 0 0
23 19 19 19 19 16 19 13 16 19 23 26 23 26 23 26 23 19 23 19 23 19 19 23 10 16 16 6 3 6 3 3 3 3 3 3 3 3 0 0 0 0 0 0
16 19 19 16 13 13 16 13 19 23 26 26 19 16 13 13 16 16 19 13 13 16 13 16 13 13 6 6 3 3 3 3 3 3 3 3 3 3 0 0 0 0 0 0
19 19 16 19 16 13 13 16 19 16 23 16 16 16 10 16 16 19 13 13 10 6 6 0 3 6 6 3 3 6 6 3 3 3 3 3 3 3 3 0 0 0 0 0
16 16 13 10 13 13 16 16 26 19 16 13 10 3 10 16 16 16 13 13 6 3 3 6 3 0 0 0 3 0 3 3 3 3 3 3 3 3 3 3 3 3 0 0
16 13 10 10 13 16 23 19 13 16 10 10 10 10 6 10 6 3 6 6 6 0 3 3 0 0 0 0 0 0 0 3 3 3 3 3 3 3 3 3 3 3 3 0
10 16 13 13 16 26 26 23 16 19 16 16 13 10 10 6 3 0 6 3 3 0 3 0 0 0 0 3 0 0 0 0 3 3 3 3 3 3 3 3 3 3 3 3
16 19 19 19 19 16 16 16 13 19 13 10 6 6 6 6 3 0 6 6 0 0 0 0 0 0 0 0 0 0 0 0 0 3 3 3 3 3 3 3 3 3 0 0
19 13 13 16 13 16 16 19 16 13 10 6 0 3 3 0 0 0 6 6 3 0 3 0 0 0 0 0 0 0 0 0 0 0 0 3 3 3 3 3 3 3 3 0
10 6 10 10 10 16 16 16 16 3 0 0 0 0 0 0 0 0 0 3 3 3 3 3 0 0 0 0 0 0 0 0 0 0 0 0 3 3 3 3 3 0 0 0

GEFSNGP_con_cape1000_246.txt.gz
Probability
0 0 0 0 0 0 0 0 0 3 3 3 10 23 26 26 39 39 52 58 68 65 71 71 71 74 74 74 74 74 71 68 65 61 58 52 52 52 52 52 52 48 42 45
0 0 0 0 0 0 0 0 0 0 3 6 10 26 29 29 35 39 39 55 68 71 68 68 71 71 74 74 77 74 74 68 61 61 58 52 52 52 52 48 52 48 39 45
0 0 0 0 0 0 0 0 0 3 6 6 16 35 48 42 48 52 55 61 74 71 65 74 71 68 74 71 77 77 74 65 61 58 55 52 52 52 52 48 48 45 45 45
0 0 0 0 0 0 0 3 3 3 6 13 23 32 42 45 58 55 61 61 68 68 68 71 71 74 71 74 77 74 71 61 61 58 55 52 52 52 48 45 45 45 42 32
0 0 0 0 0 0 0 0 0 3 10 13 19 23 35 29 45 58 65 68 77 71 68 68 71 74 74 71 74 68 68 65 61 55 55 52 48 45 45 45 45 45 42 32
0 0 0 0 0 0 0 3 3 3 13 16 19 26 29 32 45 52 61 68 68 68 68 71 77 71 74 68 74 68 68 68 61 58 52 48 48 48 48 48 48 45 35 29
0 0 0 0 0 0 0 10 13 10 16 23 26 32 42 48 58 65 68 71 68 71 71 71 74 74 74 74 71 71 71 68 61 55 55 55 45 45 42 48 42 39 32 26
0 0 0 6 3 13 23 29 23 19 23 26 39 39 35 55 55 58 58 61 58 71 68 71 77 74 74 74 74 74 71 61 55 52 52 42 45 45 45 45 45 35 26 23
3 3 19 13 19 26 26 23 16 23 32 32 39 45 45 55 55 55 55 58 65 68 71 71 74 77 71 74 74 74 65 61 58 52 52 55 45 45 45 39 35 19 19 19
19 10 13 16 13 19 16 19 19 29 32 32 39 45 45 52 55 55 52 52 58 61 68 68 68 71 77 74 74 74 65 58 61 52 52 52 45 35 35 35 29 23 13 13
23 10 13 16 16 3 16 19 19 26 29 32 39 45 45 55 52 55 52 48 55 65 65 65 68 68 68 74 74 71 61 58 48 45 42 42 29 23 29 26 23 16 16 16
6 26 23 19 6 13 16 23 29 32 29 35 48 39 48 48 48 52 55 52 61 58 52 58 61 58 58 65 71 65 58 52 48 45 35 29 23 16 6 10 3 3 6 10
13 13 13 16 10 13 23 29 29 32 35 39 39 39 45 55 45 55 58 58 55 48 45 52 55 55 55 58 52 52 58 48 42 35 32 29 26 16 13 3 0 0 0 3
23 26 29 23 23 23 26 26 32 32 35 39 39 45 48 48 48 48 58 52 52 52 42 52 52 52 52 48 52 45 45 35 35 35 26 23 26 26 13 10 10 0 0 0
16 23 23 29 26 32 32 32 32 32 39 42 42 42 45 48 45 52 48 55 48 48 45 45 55 55 48 45 45 42 39 32 32 29 23 23 13 13 16 10 10 10 3 0
10 19 23 23 29 29 29 32 29 32 32 42 45 42 48 45 48 52 48 45 48 39 48 48 48 48 48 42 45 45 39 23 26 19 16 13 6 6 6 10 10 10 3 0
16 16 23 23 23 26 35 32 29 32 32 42 45 45 48 52 48 45 45 42 45 45 39 42 42 42 45 42 42 35 26 19 6 13 13 6 6 6 6 10 10 10 6 3
19 19 23 23 23 23 23 26 29 32 35 42 45 52 55 48 42 39 42 42 35 39 29 32 32 35 39 45 35 26 23 10 13 6 6 6 10 6 6 10 10 10 6 3
16 16 19 19 23 16 19 26 26 29 35 39 39 45 52 45 39 32 32 29 29 23 29 29 19 23 26 32 23 26 16 10 6 6 6 6 6 6 6 6 6 6 6 3
13 19 19 19 16 19 19 23 26 23 29 35 39 35 35 32 32 29 29 26 19 19 19 29 23 29 26 26 19 26 16 10 6 10 6 6 6 6 6 3 3 3 3 3
16 16 16 19 19 19 19 26 26 29 29 35 35 35 35 29 16 19 23 16 19 29 19 10 23 26 23 23 6 16 16 10 10 6 3 3 3 3 3 3 3 3 3 3
16 16 13 16 13 19 23 26 26 32 32 32 29 32 19 19 16 19 23 16 16 10 10 13 13 10 13 6 3 10 10 3 0 0 0 3 3 3 3 3 3 3 3 3
16 19 19 26 26 19 19 16 23 32 32 32 32 23 26 23 16 13 13 16 10 0 6 10 10 6 3 3 10 3 10 0 0 0 0 3 3 3 3 3 3 3 3 3
19 19 19 19 16 13 13 13 19 26 29 26 29 26 23 16 16 16 10 0 0 0 0 3 3 0 0 10 10 10 6 0 0 0 0 0 3 3 3 3 3 3 3 3
16 16 13 13 13 16 19 19 19 26 23 29 26 26 16 16 13 10 6 6 0 0 0 0 0 0 0 10 6 6 6 0 0 0 0 0 3 3 3 3 3 3 3 3
16 16 13 13 13 16 16 16 13 19 13 16 16 16 10 10 10 6 10 0 0 0 0 0 0 0 3 6 6 6 3 3 0 0 0 0 3 3 3 3 3 3 3 3
13 19 26 16 13 16 16 13 13 13 13 13 13 13 13 13 6 6 3 0 0 0 0 0 0 0 3 3 10 10 3 3 0 0 0 0 0 3 3 3 3 3 3 3

GEFSNGP_con_cape1000_252.txt.gz
Probability
0 0 0 0 0 0 0 0 0 3 10 13 16 16 10 6 10 13 16 29 32 35 35 35 42 48 48 48 48 55 55 55 45 42 42 39 35 29 29 26 29 26 26 16
0 0 0 0 0 0 0 0 3 3 6 10 13 10 10 10 13 23 23 39 39 35 39 39 45 48 48 42 48 55 55 55 42 45 42 35 35 32 29 35 26 26 16 13
0 0 0 0 0 0 0 0 3 3 6 10 13 13 16 10 10 19 29 35 32 35 39 45 55 55 52 52 45 45 55 52 45 45 39 35 35 32 32 32 32 16 16 13
0 0 0 0 0 0 0 0 0 0 0 19 19 13 19 16 10 13 19 29 32 39 39 42 52 52 48 48 45 48 52 52 45 39 39 39 35 35 29 32 32 26 16 13
0 0 0 0 0 0 0 0 0 0 6 13 19 19 19 13 13 19 23 23 26 29 39 39 48 52 48 48 45 48 45 48 39 35 35 35 32 32 32 29 32 26 19 19
0 0 0 0 0 0 0 0 0 6 6 10 16 19 16 19 16 19 16 29 29 32 32 42 48 42 48 48 45 42 45 45 35 32 32 32 32 32 29 29 29 26 19 19
0 0 0 0 3 0 0 3 3 6 10 10 16 10 13 29 26 19 26 35 26 29 32 32 42 45 39 35 39 35 39 39 39 32 29 29 32 32 32 35 29 26 19 13
0 0 0 0 3 0 0 3 10 6 10 13 13 19 26 29 29 19 19 29 32 29 39 35 42 45 39 39 32 32 32 35 32 29 29 29 29 32 35 35 29 26 16 10
0 0 0 0 6 0 0 3 6 10 19 16 16 23 23 26 29 23 29 26 29 32 35 42 42 42 42 35 35 32 35 29 35 32 32 32 32 32 32 32 26 19 19 13
0 0 0 0 6 0 0 3 6 13 16 16 23 19 19 29 26 35 32 29 32 32 32 39 42 39 39 35 32 32 39 39 39 29 26 19 23 23 26 26 23 16 13 13
0 0 3 3 6 10 3 10 10 16 16 13 13 19 19 26 29 32 35 32 26 32 35 35 35 39 39 35 29 29 32 35 26 23 23 19 13 13 16 19 19 13 10 10
0 0 3 3 6 6 6 10 16 16 16 16 16 16 19 29 29 29 32 23 23 23 29 26 26 35 32 35 29 29 29 29 26 19 19 13 6 3 3 3 0 3 3 6
0 0 3 3 6 10 13 16 16 13 16 16 19 26 23 29 23 26 26 19 23 23 23 23 23 26 26 26 32 29 29 29 23 16 19 6 6 3 6 6 0 0 0 0
0 3 3 3 6 10 16 13 13 16 16 16 19 26 29 26 26 29 26 19 19 19 19 19 19 19 29 26 29 32 32 29 23 16 10 3 3 3 3 6 6 3 0 0
0 3 3 6 10 10 13 10 13 13 13 16 23 26 29 26 29 29 23 16 13 13 16 16 16 16 19 23 23 19 32 23 19 16 6 6 3 3 3 6 6 6 0 0
0 10 13 10 13 10 13 10 13 13 19 19 23 26 26 23 23 16 19 19 13 13 13 16 16 13 19 23 23 19 23 19 13 16 6 6 3 3 3 6 6 6 6 0
0 3 10 10 6 10 6 10 16 16 16 13 16 19 23 16 16 13 13 13 13 10 10 13 16 13 13 16 19 23 16 16 6 10 6 3 3 3 6 6 6 6 6 0
0 3 3 3 10 10 10 10 10 13 13 13 10 16 16 13 13 10 10 13 13 10 10 13 10 13 13 16 16 23 16 10 6 6 3 3 3 3 6 6 6 6 6 0
6 10 6 6 6 10 10 10 10 6 10 13 13 10 6 3 6 6 10 10 10 10 10 10 13 13 13 13 16 10 13 13 6 0 3 3 3 3 6 6 6 6 6 0
6 6 10 6 6 10 10 10 10 16 10 13 10 6 3 3 3 6 6 10 10 13 10 10 10 10 16 13 6 6 6 6 3 3 3 3 0 3 3 3 6 6 6 3
3 6 10 10 10 10 10 10 10 10 10 6 10 3 3 3 3 3 3 3 0 6 10 10 13 13 13 6 3 3 3 3 3 3 0 0 3 3 3 3 3 6 6 0
3 6 6 10 10 10 10 10 10 10 10 6 6 6 3 3 3 3 3 3 3 0 6 3 6 13 10 6 3 3 0 3 3 0 0 0 3 3 3 6 3 0 0 0
3 3 6 6 10 13 10 10 10 10 6 3 3 3 3 3 3 3 3 6 3 3 3 3 3 3 0 6 6 3 0 3 3 3 0 0 3 3 0 3 0 0 0 0
0 3 3 6 6 10 10 13 10 3 3 3 3 3 3 3 6 6 6 6 3 3 0 0 0 0 0 0 0 0 0 0 0 0 0 0 0 0 0 0 0 0 0 0
6 3 3 3 3 3 6 10 10 6 6 6 6 6 6 6 6 6 6 3 0 0 0 0 0 0 0 0 0 0 0 0 0 0 0 0 0 0 0 0 0 0 0 0
0 0 0 0 0 0 3 6 3 3 3 6 6 6 6 3 3 3 3 0 0 0 0 0 0 0 0 0 0 0 0 0 0 0 0 0 0 0 0 0 0 0 3 3
0 0 0 0 0 0 3 3 0 3 3 3 3 3 3 3 3 3 0 0 0 0 0 0 0 0 0 0 0 0 0 0 0 0 0 0 0 0 0 0 0 0 0 3

GEFSNGP_con_cape1000_258.txt.gz
Probability
0 0 0 0 0 0 0 0 0 0 0 0 0 0 0 0 6 13 23 26 26 23 16 19 19 29 23 26 32 39 35 39 42 35 32 29 26 16 16 16 19 16 19 16
0 0 0 0 0 0 0 0 0 0 0 0 0 0 3 6 10 13 16 19 23 26 23 19 23 26 19 29 29 42 42 35 39 35 32 26 23 23 23 26 16 16 16 19
0 0 0 0 0 0 0 3 0 0 0 0 0 0 3 6 10 13 13 13 19 23 26 29 23 29 23 26 29 35 42 42 35 32 35 26 26 23 23 26 19 19 19 13
0 0 0 0 0 0 0 3 0 0 0 0 0 3 3 6 10 10 6 6 13 23 19 26 26 23 23 23 26 29 35 32 35 29 26 23 23 29 29 23 23 19 16 16
0 0 0 0 0 0 3 3 0 0 0 3 3 6 3 6 6 10 10 6 10 13 16 19 23 23 29 32 32 26 32 35 26 29 26 26 26 29 23 23 23 23 19 10
0 0 0 0 0 0 0 3 0 0 3 3 10 6 3 3 6 10 10 3 10 13 13 16 23 23 26 26 29 29 35 29 26 29 29 29 26 26 26 23 23 19 19 13
0 0 0 0 0 0 0 0 0 0 3 3 0 3 3 3 6 6 6 6 6 10 16 19 16 19 29 23 26 26 26 29 29 23 26 29 26 26 26 26 26 23 19 16
0 0 0 0 0 0 0 0 0 3 3 3 3 6 6 6 10 13 13 13 13 16 16 13 13 19 23 19 16 23 23 23 23 16 19 26 26 29 26 26 23 16 10 16
0 0 0 0 0 0 0 0 0 3 3 6 6 6 13 10 13 10 10 16 16 16 16 16 13 19 19 16 19 19 23 19 19 19 16 19 19 23 29 29 26 19 16 16
0 0 0 0 0 0 0 0 3 3 6 6 6 3 13 10 13 13 13 16 16 16 16 16 16 19 19 23 16 16 16 19 19 16 16 16 19 23 23 26 26 19 13 16
0 0 0 0 3 3 6 6 3 6 6 6 6 6 16 16 10 10 6 10 16 19 19 23 19 26 23 19 19 19 16 13 16 16 19 16 10 13 19 19 19 19 16 10
0 0 0 3 3 3 13 10 6 10 13 13 10 10 10 10 10 6 10 10 16 16 19 23 23 19 16 19 19 19 16 13 13 16 16 10 10 10 6 6 6 6 6 6
0 0 3 3 6 10 13 10 6 10 10 10 10 10 10 10 13 13 13 13 16 13 16 13 19 19 13 13 16 19 19 13 13 16 19 10 6 10 6 3 3 0 0 0
0 3 3 3 3 6 6 6 6 6 10 10 10 10 13 13 16 16 13 13 10 10 10 16 19 13 10 13 13 16 16 16 13 16 19 10 10 10 6 3 0 3 3 0
3 3 3 0 3 6 6 6 6 6 6 6 6 6 10 10 16 19 13 6 6 10 6 10 13 10 6 13 13 13 13 10 13 10 10 16 10 10 10 0 0 0 0 3
3 3 0 6 6 6 6 6 6 10 6 6 6 6 6 10 13 6 10 10 13 13 10 10 6 6 6 6 10 10 13 10 6 6 10 13 10 6 3 0 0 0 0 0
3 3 0 3 6 6 6 6 6 10 6 6 6 6 6 13 6 6 10 16 13 13 10 6 6 3 3 6 6 3 3 0 0 3 10 10 6 6 3 0 0 0 0 0
0 0 3 3 6 6 6 6 6 6 6 6 6 6 10 13 10 10 6 3 10 10 3 3 3 3 3 6 3 3 3 3 0 6 6 10 6 3 0 0 0 0 0 0
0 0 3 3 6 6 6 6 6 6 6 6 6 6 6 10 6 10 0 3 3 6 6 3 3 6 3 3 3 3 3 3 6 6 3 3 3 3 0 0 0 0 0 0
0 0 3 3 6 6 10 10 6 6 6 3 3 3 3 10 6 3 3 3 3 3 0 0 0 6 6 6 6 6 6 6 6 6 6 3 3 3 0 0 0 0 0 0
0 0 0 3 10 10 10 6 6 6 3 3 0 0 3 3 3 0 0 0 0 0 0 0 0 0 0 0 0 6 6 6 6 3 3 3 3 3 0 0 0 0 0 0
0 0 0 3 6 10 6 6 6 6 0 0 0 0 0 0 3 3 3 3 3 0 0 0 0 0 0 0 0 3 6 0 0 0 0 0 0 0 0 0 0 0 0 0
0 0 0 0 3 6 0 3 3 0 0 0 0 0 0 0 3 3 3 3 0 0 0 0 0 0 0 0 0 3 0 0 0 0 0 0 0 3 3 0 0 0 0 0
0 0 0 0 0 0 0 0 0 0 0 0 0 0 0 0 0 3 3 0 0 0 0 0 0 0 0 3 3 0 3 0 0 0 0 0 3 3 3 3 3 0 0 0
0 0 0 0 0 0 0 0 0 0 0 0 0 3 3 3 6 3 3 0 0 0 0 0 0 0 3 3 0 0 0 0 0 0 0 0 0 0 3 3 3 0 0 0
0 0 3 0 0 0 0 0 0 0 0 0 0 6 6 6 6 6 3 3 3 3 3 3 3 3 3 0 0 0 0 0 0 0 0 0 0 0 0 0 3 3 0 0
0 0 3 0 0 0 0 0 0 0 0 0 0 0 0 3 3 3 3 3 3 3 3 0 3 0 0 0 0 0 0 0 0 0 0 0 0 0 0 0 0 3 3 0